Clovis, NM

9:07 PM MDT on September 25, 2017 (GMT -0600)
Clovis Municipal

Weather History for KCVN - May, 2013

Change the Weather History Date:

Sunday, May 19, 2013

  Actual Average Record
Temperature  
Mean Temperature 70 °F -  
Max Temperature 84 °F 81 °F 100 °F (1925)
Min Temperature 57 °F 51 °F 35 °F (1952)
Cooling Degree Days 6    
Growing Degree Days 20 (Base 50)    
Moisture  
Dew Point 24 °F    
Average Humidity 17    
Maximum Humidity 26    
Minimum Humidity 11    
Precipitation  
Precipitation 0.00 in - - ()
Sea Level Pressure  
Sea Level Pressure 29.84 in    
Wind  
Wind Speed 15 mph (West)    
Max Wind Speed 33 mph    
Max Gust Speed 41 mph    
Visibility 10 miles    
Events      
Averages and records for this station are not official NWS values.
T = Trace of Precipitation, MM = Missing Value Source: NWS Daily Summary

Daily Weather History Graph

Daily Weather History Graph

Search for Another Location

Airport or City:

Trip Planner

Search our weather history database for the weather conditions in past years. The results will help you decide how hot, cold, wet, or windy it might be!

Date:

Astronomy

May. 19, 2013 Rise Set
Actual Time 5:47 AM MDT 7:51 PM MDT
Civil Twilight 5:18 AM MDT 8:19 PM MDT
Nautical Twilight 4:44 AM MDT 8:53 PM MDT
Astronomical Twilight 4:07 AM MDT 9:30 PM MDT
Moon 2:11 PM MDT (5/19) 1:56 AM MDT (5/19)
Length of Visible Light 15h 00m
Length of Day
14h 03m
Waxing Gibbous, 66% of the Moon is Illuminated
May 19
Waxing Gibbous
May 24
Full
May 31
Last Quarter
Jun 8
New
Jun 16
First Quarter

Hourly Weather History & Observations

Time (MDT) Temp. Dew Point Humidity Pressure Visibility Wind Dir Wind Speed Gust Speed Precip Events Conditions
12:15 AM 60.8 °F 21.2 °F 22% 29.84 in 10.0 mi WSW 4.6 mph - N/A   Clear
12:35 AM 62.6 °F 21.2 °F 20% 29.84 in 10.0 mi West 6.9 mph - N/A   Clear
12:55 AM 62.6 °F 21.2 °F 20% 29.83 in 10.0 mi WSW 10.4 mph - N/A   Clear
1:15 AM 62.6 °F 21.2 °F 20% 29.83 in 10.0 mi WSW 9.2 mph - N/A   Clear
1:35 AM 60.8 °F 21.2 °F 22% 29.82 in 10.0 mi WSW 8.1 mph - N/A   Clear
1:55 AM 60.8 °F 21.2 °F 22% 29.82 in 10.0 mi West 8.1 mph - N/A   Clear
2:15 AM 64.4 °F 23.0 °F 21% 29.82 in 10.0 mi West 9.2 mph - N/A   Clear
2:35 AM 60.8 °F 21.2 °F 22% 29.82 in 10.0 mi WNW 10.4 mph - N/A   Clear
2:55 AM 59.0 °F 21.2 °F 23% 29.82 in 10.0 mi WNW 12.7 mph - N/A   Clear
3:15 AM 59.0 °F 21.2 °F 23% 29.82 in 10.0 mi WNW 12.7 mph - N/A   Clear
3:35 AM 60.8 °F 21.2 °F 22% 29.83 in 10.0 mi WNW 10.4 mph - N/A   Clear
3:55 AM 59.0 °F 21.2 °F 23% 29.83 in 10.0 mi WNW 10.4 mph - N/A   Clear
4:15 AM 60.8 °F 21.2 °F 22% 29.83 in 10.0 mi West 10.4 mph - N/A   Clear
4:35 AM 59.0 °F 21.2 °F 23% 29.84 in 10.0 mi West 12.7 mph - N/A   Clear
4:55 AM 60.8 °F 23.0 °F 23% 29.85 in 10.0 mi West 13.8 mph - N/A   Clear
5:15 AM 62.6 °F 24.8 °F 24% 29.85 in 10.0 mi West 11.5 mph - N/A   Clear
5:35 AM 60.8 °F 21.2 °F 22% 29.86 in 10.0 mi West 12.7 mph - N/A   Clear
6:15 AM 57.2 °F 21.2 °F 25% 29.87 in 10.0 mi West 12.7 mph - N/A   Clear
6:35 AM 59.0 °F 23.0 °F 25% 29.88 in 10.0 mi West 9.2 mph - N/A   Clear
6:55 AM 60.8 °F 24.8 °F 25% 29.88 in 10.0 mi West 6.9 mph - N/A   Clear
7:15 AM 64.4 °F 26.6 °F 24% 29.88 in 10.0 mi West 12.7 mph - N/A   Clear
7:35 AM 66.2 °F 28.4 °F 24% 29.88 in 10.0 mi West 20.7 mph - N/A   Clear
7:55 AM 66.2 °F 30.2 °F 26% 29.88 in 10.0 mi West 23.0 mph 28.8 mph N/A   Clear
8:15 AM 69.8 °F 32.0 °F 25% 29.88 in 10.0 mi West 21.9 mph 28.8 mph N/A   Clear
8:55 AM 73.4 °F 32.0 °F 22% 29.88 in 10.0 mi West 25.3 mph 29.9 mph N/A   Clear
9:15 AM 73.4 °F 30.2 °F 20% 29.88 in 10.0 mi West 27.6 mph 33.4 mph N/A   Clear
9:35 AM 75.2 °F 30.2 °F 19% 29.88 in 10.0 mi West 24.2 mph 31.1 mph N/A   Clear
9:55 AM 75.2 °F 30.2 °F 19% 29.87 in 10.0 mi West 23.0 mph 32.2 mph N/A   Clear
10:15 AM 75.2 °F 30.2 °F 19% 29.87 in 10.0 mi West 23.0 mph 29.9 mph N/A   Clear
10:35 AM 77.0 °F 30.2 °F 18% 29.87 in 10.0 mi West 19.6 mph 29.9 mph N/A   Clear
10:55 AM 78.8 °F 30.2 °F 17% 29.86 in 10.0 mi West 20.7 mph 29.9 mph N/A   Clear
11:15 AM 78.8 °F 28.4 °F 16% 29.86 in 10.0 mi West 19.6 mph 31.1 mph N/A   Clear
11:35 AM 78.8 °F 28.4 °F 16% 29.86 in 10.0 mi West 23.0 mph 31.1 mph N/A   Clear
11:55 AM 80.6 °F 26.6 °F 14% 29.86 in 10.0 mi West 20.7 mph 33.4 mph N/A   Clear
12:15 PM 80.6 °F 26.6 °F 14% 29.85 in 10.0 mi West 20.7 mph 33.4 mph N/A   Clear
12:35 PM 80.6 °F 26.6 °F 14% 29.85 in 10.0 mi WSW 26.5 mph 35.7 mph N/A   Clear
1:15 PM 82.4 °F 28.4 °F 14% 29.83 in 10.0 mi WSW 25.3 mph 35.7 mph N/A   Partly Cloudy
1:35 PM 82.4 °F 26.6 °F 13% 29.82 in 10.0 mi West 24.2 mph 32.2 mph N/A   Partly Cloudy
1:55 PM 82.4 °F 26.6 °F 13% 29.82 in 9.0 mi WSW 16.1 mph 35.7 mph N/A   Partly Cloudy
2:15 PM 84.2 °F 26.6 °F 12% 29.82 in 9.0 mi WSW 28.8 mph 40.3 mph N/A   Scattered Clouds
2:35 PM 84.2 °F 26.6 °F 12% 29.81 in 10.0 mi West 23.0 mph 33.4 mph N/A   Partly Cloudy
2:55 PM 84.2 °F 26.6 °F 12% 29.80 in 10.0 mi West 23.0 mph 33.4 mph N/A   Partly Cloudy
3:15 PM 84.2 °F 26.6 °F 12% 29.79 in 7.0 mi WSW 33.4 mph 39.1 mph N/A   Clear
3:35 PM 84.2 °F 24.8 °F 11% 29.79 in 10.0 mi West 27.6 mph 31.1 mph N/A   Clear
3:55 PM 82.4 °F 24.8 °F 12% 29.79 in 8.0 mi WSW 32.2 mph 38.0 mph N/A   Clear
4:15 PM 82.4 °F 24.8 °F 12% 29.78 in 10.0 mi West 23.0 mph 36.8 mph N/A   Clear
4:35 PM 84.2 °F 24.8 °F 11% 29.79 in 8.0 mi West 28.8 mph 35.7 mph N/A   Clear
4:55 PM 82.4 °F 23.0 °F 11% 29.78 in 10.0 mi West 27.6 mph 35.7 mph N/A   Clear
5:15 PM 82.4 °F 23.0 °F 11% 29.78 in 8.0 mi West 32.2 mph 40.3 mph N/A   Clear
5:35 PM 82.4 °F 24.8 °F 12% 29.79 in 10.0 mi West 25.3 mph 35.7 mph N/A   Clear
5:55 PM 82.4 °F 23.0 °F 11% 29.79 in 3.0 mi West 26.5 mph 35.7 mph N/A   Partly Cloudy
6:15 PM 80.6 °F 21.2 °F 11% 29.80 in 3.0 mi West 26.5 mph 41.4 mph N/A   Clear
6:35 PM 80.6 °F 21.2 °F 11% 29.80 in 5.0 mi West 28.8 mph 38.0 mph N/A   Clear
6:55 PM 80.6 °F 21.2 °F 11% 29.81 in 9.0 mi West 26.5 mph 35.7 mph N/A   Clear
7:15 PM 78.8 °F 19.4 °F 11% 29.82 in 9.0 mi West 23.0 mph 32.2 mph N/A   Clear
7:35 PM 77.0 °F 19.4 °F 12% 29.83 in 10.0 mi West 19.6 mph 25.3 mph N/A   Clear
7:55 PM 75.2 °F 19.4 °F 12% 29.84 in 10.0 mi West 17.3 mph 25.3 mph N/A   Clear
8:15 PM 73.4 °F 19.4 °F 13% 29.85 in 10.0 mi West 11.5 mph - N/A   Clear
8:35 PM 73.4 °F 19.4 °F 13% 29.85 in 10.0 mi West 10.4 mph - N/A   Clear
8:55 PM 71.6 °F 19.4 °F 14% 29.86 in 10.0 mi WNW 12.7 mph - N/A   Clear
9:15 PM 71.6 °F 19.4 °F 14% 29.85 in 10.0 mi WNW 13.8 mph - N/A   Clear
9:35 PM 69.8 °F 19.4 °F 15% 29.86 in 10.0 mi NW 10.4 mph - N/A   Clear
9:55 PM 71.6 °F 19.4 °F 14% 29.86 in 10.0 mi NW 9.2 mph - N/A   Clear
10:15 PM 69.8 °F 19.4 °F 15% 29.87 in 10.0 mi NW 8.1 mph - N/A   Clear
10:35 PM 69.8 °F 21.2 °F 16% 29.87 in 10.0 mi NW 8.1 mph - N/A   Clear
10:55 PM 69.8 °F 21.2 °F 16% 29.87 in 10.0 mi NW 9.2 mph - N/A   Clear
11:15 PM 69.8 °F 21.2 °F 16% 29.87 in 10.0 mi NW 9.2 mph - N/A   Clear
11:35 PM 69.8 °F 21.2 °F 16% 29.87 in 10.0 mi NW 6.9 mph - N/A   Clear
11:55 PM 68.0 °F 21.2 °F 17% 29.87 in 10.0 mi NW 8.1 mph - N/A   Clear